Location: Davayat
(45.9471°N, 3.1105°E)
Time: 13:26:41
(UTC+00:00)

SL-8 Rocket - Pass Details

Date: 01 December 2020
Orbit: 958 x 990 km, 82.9° (Epoch: 27 January)

Event Time Altitude Azimuth Distance (km) Brightness Sun altitude
Rises 17:13:20 0° 350° (N) 3,679 6.9 -11.7°
Reaches altitude 10° 17:15:50 10° 350° (N) 2,733 6.3 -12.1°
Maximum altitude 17:22:07 84° 264° (W) 992 4.1 -13.1°
Drops below altitude 10° 17:28:24 10° 177° (S) 2,735 6.5 -14.2°
Sets 17:30:54 0° 176° (S) 3,682 7.2 -14.6°
